sat.trackr.live / text

‹ back to catalog

GALAXY 34 (G-34)

NORAD 54027 · 2022-128B

PAYLOAD ACTIVE UNKNOWN

§ Identity

Operator
Country
ITSO
Launch date
2022-10-08
Launch site
AFETR
Launch vehicle
Mass (kg)
RCS (m²)

Purposes: comms

External: N2YO · Heavens-Above · Gunter

§ Orbital elements

Epoch: 2026-09-19T13:55:22.348992Z

Period
1,436.07 min
Inclination
0.0187°
Eccentricity
0.0001848
Mean motion
1.00273769 rev/d
Perigee alt
35,778.2 km
Apogee alt
35,793.8 km
Semi-major
42,164.2 km
B*
0.0000e+0
RAAN
151.9364°
Arg perigee
19.9453°
Mean anomaly
266.4432°
Rev number
1,485

§ Raw data

GALAXY 34 (G-34)1 54027U 22128B   26262.58011978  .00000000  00000+0  00000+0 0  99982 54027   0.0187 151.9364 0001848  19.9453 266.4432  1.00273769 14857

JSON: /api/v1/satellites/54027 · /tle

For live sub-satellite position, see the globe view (requires WebGL).

§ Visibility from observer

Set your observer location to see the next 7 days of passes ≥ 10°. The values pass through the URL so the page stays shareable.

No JS? Fill the form by hand. The geolocation button needs JavaScript.